Location: Nergården
(69.0000°N, 16.5500°E)
Time: 12:34:50
(UTC+02:00)

Envisat - Visible Passes

Search period start: 23 October 2019 00:00
Search period end: 01 November 2019 23:00
Orbit: 764 x 766 km, 98.1° (Epoch: 23 October)

Date Brightness Start Highest point End Pass type
(mag) Time Alt. Az. Time Alt. Az. Time Alt. Az.
23 Oct 6.0 06:17:53 10° NE 06:21:24 18° ENE 06:24:55 10° ESE visible
23 Oct 3.0 17:46:34 10° SSE 17:51:40 81° ENE 17:56:48 10° NNW visible
23 Oct 4.6 19:26:28 10° SSW 19:31:12 37° W 19:35:57 10° NNW visible
23 Oct 6.1 21:09:16 10° W 21:11:44 13° WNW 21:14:14 10° NW visible
24 Oct 6.3 05:41:46 10° NE 05:43:55 13° ENE 05:46:05 10° E visible
24 Oct 5.0 07:19:52 10° NNE 07:24:33 35° E 07:29:12 10° SSE visible
24 Oct 3.8 18:49:08 10° S 18:54:08 55° WSW 18:59:10 10° NNW visible
24 Oct 5.7 20:30:36 10° SW 20:34:18 20° W 20:37:59 10° NNW visible
25 Oct 5.7 06:43:12 10° NNE 06:47:19 24° E 06:51:26 10° SE visible
25 Oct 3.2 18:12:06 10° SSE 18:17:13 80° WSW 18:22:21 10° NNW visible
25 Oct 5.1 19:52:35 10° SSW 19:56:59 29° W 20:01:24 10° NNW visible
25 Oct 6.4 21:37:33 10° WNW 21:37:49 10° WNW 21:38:05 10° WNW visible
26 Oct 6.0 06:06:44 10° NE 06:09:57 16° ENE 06:13:09 10° ESE visible
26 Oct 3.0 17:35:20 10° SE 17:40:25 73° ENE 17:45:31 10° NNW visible
26 Oct 4.4 19:15:01 10° SSW 19:19:50 42° W 19:24:41 10° NNW visible
26 Oct 6.0 20:57:19 10° WSW 21:00:15 15° WNW 21:03:11 10° NW visible
27 Oct 6.4 04:30:58 10° NE 04:32:25 11° ENE 04:33:52 10° E visible
27 Oct 5.2 06:08:37 10° NNE 06:13:10 31° E 06:17:40 10° SSE visible
27 Oct 3.6 17:37:45 10° S 17:42:49 61° WSW 17:47:53 10° NNW visible
27 Oct 5.5 19:18:55 10° SW 19:22:51 22° W 19:26:48 10° NNW visible
28 Oct 5.8 05:31:59 10° NNE 05:35:53 21° E 05:39:46 10° SE visible
28 Oct 3.1 17:00:48 10° SSE 17:05:55 88° WSW 17:11:03 10° NNW visible
28 Oct 4.9 18:41:02 10° SSW 18:45:35 32° W 18:50:10 10° NNW visible
28 Oct 6.2 20:24:40 10° W 20:26:18 11° WNW 20:27:57 10° NW visible
29 Oct 6.1 04:55:37 10° NE 04:58:28 15° ENE 05:01:18 10° ESE visible
29 Oct 4.6 06:34:06 10° NNE 06:38:55 40° E 06:43:44 10° SSE visible
29 Oct 3.0 16:24:06 10° SE 16:29:09 66° ENE 16:34:14 10° NNW visible
29 Oct 4.1 18:03:34 10° S 18:08:28 47° W 18:13:24 10° NNW visible
29 Oct 5.9 19:45:30 10° WSW 19:48:47 17° WNW 19:52:05 10° NW visible
30 Oct 5.3 05:57:22 10° NNE 06:01:45 28° E 06:06:07 10° SSE visible
30 Oct 3.4 17:26:24 10° SSE 17:31:30 69° WSW 17:36:36 10° NNW visible
30 Oct 5.3 19:07:16 10° SW 19:11:25 25° W 19:15:35 10° NNW visible
31 Oct 5.9 05:20:48 10° NNE 05:24:27 19° E 05:28:04 10° SE visible
31 Oct 3.0 16:49:32 10° SSE 16:54:38 84° ENE 16:59:47 10° NNW visible
31 Oct 4.7 18:29:31 10° SSW 18:34:12 36° W 18:38:54 10° NNW visible
31 Oct 6.1 20:12:30 10° W 20:14:48 13° WNW 20:17:05 10° NW visible
01 Nov 6.2 04:44:36 10° NE 04:46:59 13° ENE 04:49:21 10° E visible
01 Nov 4.8 06:22:49 10° NNE 06:27:33 36° E 06:32:15 10° SSE visible
01 Nov 3.1 16:12:54 10° SE 16:17:55 60° NE 16:22:56 10° NNW visible
01 Nov 3.9 17:52:09 10° S 17:57:08 52° WSW 18:02:08 10° NNW visible
01 Nov 5.7 19:33:44 10° WSW 19:37:20 19° WNW 19:40:55 10° NNW visible
